Date String (YYYY-MM-DD hh:mm:ss) UTC,Instrument flags,Ambient pressure (hPa),Sample flow (lpm),Bypass flow (lpm),Sample temperature (°C),Ambient temperature (°C),ASC tube jacket temperature (°C),LED temperature (°C),Box temperature (°C),Sample RH (%),Span deviation,Mass concentration (μg/m³),Mass concentration (μg/m³),Mass concentration (μg/m³)
DateTimeUTC,F1_M11,P_M11,Q1_M11,Q2_M11,T1_M11,T2_M11,T3_M11,T4_M11,T5_M11,U1_M11,ZSPAN_M11,X0_M11,X2_M11,X1_M11
2022-03-04 16:00:00,,0819.3,5.00,0.00,26.4,25.5,00.0,35.3,28.2,17.3,-000.3,0023.52,0012.03,0010.32
2022-03-04 16:01:00,,0819.3,5.00,0.00,26.4,25.6,00.0,35.3,28.2,17.5,-000.2,0022.87,0012.02,0010.26
2022-03-04 16:02:00,,0819.3,5.01,0.00,26.4,25.6,00.0,35.3,28.2,17.6,-000.3,0021.87,0011.94,0010.20
2022-03-04 16:03:00,,0819.3,4.99,0.00,26.4,25.6,00.0,35.3,28.2,17.6,-000.6,0021.77,0011.90,0010.16
2022-03-04 16:04:00,,0819.2,4.99,0.00,26.4,25.6,00.0,35.3,28.2,17.8,-000.6,0021.51,0011.87,0010.11
2022-03-04 16:05:00,,0819.2,5.00,0.00,26.4,25.6,00.0,35.3,28.2,17.9,-000.8,0021.52,0011.81,0010.08
2022-03-04 16:06:00,,0819.2,5.00,0.00,26.4,25.6,00.0,35.3,28.3,17.6,-000.6,0021.44,0011.78,0010.04
2022-03-04 16:07:00,,0819.1,4.99,0.00,26.4,25.6,00.0,35.3,28.3,17.5,-000.7,0022.09,0011.74,0009.97
2022-03-04 16:08:00,,0819.1,4.99,0.00,26.4,25.6,00.0,35.3,28.3,17.4,-000.8,0021.64,0011.67,0009.91
2022-03-04 16:09:00,,0819.2,5.00,0.00,26.4,25.6,00.0,35.3,28.2,17.5,-001.0,0020.99,0011.56,0009.84
2022-03-04 16:10:00,,0819.2,4.99,0.00,26.4,25.6,00.0,35.3,28.2,17.3,-001.3,0021.25,0011.60,0009.78
2022-03-04 16:11:00,,0819.2,5.01,0.00,26.4,25.6,00.0,35.3,28.3,17.3,-001.2,0021.32,0011.57,0009.78
2022-03-04 16:12:00,,0819.1,5.02,0.00,26.4,25.6,00.0,35.3,28.3,17.2,-001.3,0021.84,0011.54,0009.81
2022-03-04 16:13:00,,0819.1,5.00,0.00,26.4,25.6,00.0,35.3,28.3,17.1,-001.6,0022.50,0011.56,0009.82
2022-03-04 16:14:00,,0819.1,5.01,0.00,26.4,25.6,00.0,35.3,28.3,16.9,-001.5,0022.78,0011.61,0009.82
2022-03-04 16:15:00,,0819.1,4.99,0.00,26.4,25.6,00.0,35.3,28.2,16.0,-001.6,0022.91,0011.52,0009.74
2022-03-04 16:16:00,,0819.1,4.99,0.00,26.4,25.6,00.0,35.3,28.2,16.2,-001.5,0022.76,0011.35,0009.60
2022-03-04 16:17:00,,0819.0,5.01,0.00,26.4,25.6,00.0,35.3,28.2,14.9,-001.5,0022.85,0011.11,0009.39
2022-03-04 16:18:00,,0819.0,5.00,0.00,26.4,25.6,00.0,35.3,28.2,13.9,-001.6,0022.08,0010.72,0009.10
2022-03-04 16:19:00,,0819.0,5.00,0.00,26.4,25.6,00.0,35.3,28.2,14.1,-001.8,0021.44,0010.43,0008.85
2022-03-04 16:20:00,,0818.9,4.98,0.00,26.4,25.6,00.0,35.3,28.2,12.7,-001.7,0021.05,0010.07,0008.52
2022-03-04 16:21:00,,0819.0,4.99,0.00,26.4,25.6,00.0,35.3,28.2,13.0,-001.6,0019.83,0009.54,0008.15
2022-03-04 16:22:00,,0818.9,5.00,0.00,26.4,25.6,00.0,35.3,28.3,13.0,-001.6,0018.71,0009.04,0007.74
2022-03-04 16:23:00,,0819.0,5.01,0.00,26.4,25.6,00.0,35.4,28.2,13.4,-001.6,0017.29,0008.53,0007.31
2022-03-04 16:24:00,,0818.9,4.99,0.00,26.4,25.6,00.0,35.4,28.2,13.4,-001.5,0015.75,0008.05,0006.91
2022-03-04 16:25:00,,0819.0,5.01,0.00,26.4,25.6,00.0,35.4,28.2,12.9,-001.7,0014.85,0007.52,0006.50
2022-03-04 16:26:00,,0819.0,5.00,0.00,26.4,25.6,00.0,35.4,28.3,13.5,-001.6,0014.59,0007.13,0006.19
2022-03-04 16:27:00,,0818.9,4.99,0.00,26.4,25.6,00.0,35.4,28.3,13.5,-001.7,0014.12,0006.85,0005.94
2022-03-04 16:28:00,,0818.9,5.00,0.00,26.5,25.6,00.0,35.4,28.3,13.3,-001.7,0013.28,0006.61,0005.72
2022-03-04 16:29:00,,0818.9,5.00,0.00,26.5,25.6,00.0,35.4,28.3,12.2,-001.3,0012.44,0006.46,0005.57
2022-03-04 16:30:00,,0818.9,5.00,0.00,26.5,25.6,00.0,35.4,28.3,11.9,-000.7,0011.79,0006.22,0005.38
2022-03-04 16:31:00,,0818.9,5.00,0.00,26.5,25.6,00.0,35.4,28.3,12.5,-000.6,0011.83,0006.05,0005.25
2022-03-04 16:32:00,,0819.0,5.01,0.00,26.5,25.6,00.0,35.4,28.3,11.8,0000.0,0011.63,0005.90,0005.14
2022-03-04 16:33:00,,0818.9,5.00,0.00,26.5,25.6,00.0,35.4,28.3,11.3,0000.3,0011.28,0005.72,0005.00
2022-03-04 16:34:00,,0818.9,5.00,0.00,26.5,25.7,00.0,35.4,28.3,11.0,0000.5,0011.13,0005.57,0004.85
2022-03-04 16:35:00,,0818.8,5.00,0.00,26.5,25.7,00.0,35.4,28.3,11.5,0001.2,0011.47,0005.44,0004.70
2022-03-04 16:36:00,,0818.8,5.01,0.00,26.5,25.7,00.0,35.4,28.3,11.8,0001.9,0011.21,0005.32,0004.61
2022-03-04 16:37:00,,0818.8,4.99,0.00,26.5,25.7,00.0,35.4,28.3,11.8,0002.6,0010.64,0005.20,0004.50
2022-03-04 16:38:00,,0818.8,4.99,0.00,26.5,25.7,00.0,35.4,28.3,12.1,0002.7,0009.97,0005.05,0004.38
2022-03-04 16:39:00,,0818.7,5.01,0.00,26.5,25.7,00.0,35.5,28.4,12.2,0002.8,0009.97,0004.88,0004.25
2022-03-04 16:40:00,,0818.7,5.00,0.00,26.5,25.7,00.0,35.5,28.3,12.2,0003.0,0009.85,0004.75,0004.16
2022-03-04 16:41:00,,0818.8,5.00,0.00,26.5,25.7,00.0,35.5,28.3,12.5,0003.3,0009.76,0004.71,0004.12
2022-03-04 16:42:00,,0818.7,4.99,0.00,26.5,25.7,00.0,35.5,28.3,12.7,0003.9,0009.37,0004.72,0004.10
2022-03-04 16:43:00,,0818.7,5.00,0.00,26.6,25.7,00.0,35.5,28.3,12.8,0003.3,0009.40,0004.75,0004.10
2022-03-04 16:44:00,,0818.6,5.00,0.00,26.6,25.7,00.0,35.5,28.4,12.5,0003.1,0009.38,0004.78,0004.12
2022-03-04 16:45:00,,0818.6,5.01,0.00,26.6,25.7,00.0,35.5,28.4,12.5,0002.7,0010.16,0004.83,0004.15
2022-03-04 16:46:00,,0818.5,5.00,0.00,26.6,25.7,00.0,35.5,28.4,12.9,0001.9,0010.25,0004.90,0004.18
2022-03-04 16:47:00,,0818.5,5.00,0.00,26.6,25.8,00.0,35.5,28.4,13.3,0001.0,0010.40,0004.91,0004.18
2022-03-04 16:48:00,,0818.5,5.00,0.00,26.6,25.8,00.0,35.5,28.4,13.0,0000.0,0010.59,0004.95,0004.20
2022-03-04 16:49:00,,0818.5,5.00,0.00,26.6,25.8,00.0,35.5,28.4,12.4,0000.5,0011.12,0004.96,0004.17
2022-03-04 16:50:00,,0818.5,5.01,0.00,26.6,25.8,00.0,35.5,28.4,11.8,0000.4,0012.20,0004.95,0004.12
2022-03-04 16:51:00,,0818.4,5.00,0.00,26.6,25.8,00.0,35.5,28.4,13.2,-000.2,0013.03,0005.03,0004.14
2022-03-04 16:52:00,,0818.4,5.00,0.00,26.6,25.8,00.0,35.5,28.4,13.3,-000.9,0013.34,0005.13,0004.20
2022-03-04 16:53:00,,0818.4,4.99,0.00,26.6,25.8,00.0,35.5,28.4,14.6,-001.0,0013.54,0005.26,0004.31
2022-03-04 16:54:00,,0818.4,4.99,0.00,26.6,25.8,00.0,35.6,28.4,15.6,-000.5,0014.31,0005.56,0004.53
2022-03-04 16:55:00,,0818.4,5.01,0.00,26.6,25.8,00.0,35.6,28.4,16.2,-000.5,0015.73,0005.99,0004.83
2022-03-04 16:56:00,,0818.5,5.01,0.00,26.6,25.8,00.0,35.6,28.5,16.9,-000.2,0016.60,0006.42,0005.21
2022-03-04 16:57:00,,0818.5,5.00,0.00,26.6,25.8,00.0,35.6,28.5,17.2,0000.2,0017.20,0006.87,0005.62
2022-03-04 16:58:00,,0818.5,5.00,0.00,26.6,25.8,00.0,35.6,28.4,18.0,-000.0,0019.00,0007.46,0006.11
2022-03-04 16:59:00,,0818.7,4.99,0.00,26.6,25.8,00.0,35.6,28.4,17.9,0000.1,0020.40,0008.04,0006.62
